Regional Weather Roundup
Issued by NWS Kansas City/Pleasant Hill, MO

Home | Current Version | Previous Version | Text Only | Print | Product List | Glossary On
Versions: 1 2 3 4 5 6 7 8 9 10 11 12 13 14 15 16 17 18 19 20 21 22 23 24 25 26 27 28 29 30 31 32 33 34 35 36 37 38 39 40 41 42 43 44 45 46 47 48 49 50
000
ASUS43 KEAX 010810
RWREAX

WEATHER ROUNDUP FOR EASTERN KANSAS AND NORTHWEST MISSOURI
NATIONAL WEATHER SERVICE KANSAS CITY/PLEASANT HILL MO
300 AM CDT TUE SEP 01 2015

KSZ040-057-103>105-MOZ028-029-037-043-010900-
...KANSAS CITY METROPOLITAN AREA...

CITY           SKY/WX    TMP DP  RH WIND       PRES   REMARKS
K.C. INTL      CLEAR     74  69  85 S10       29.99S
K.C. DOWNTOWN  CLEAR     77  69  76 S7        29.98F
LEES SUMMIT    CLEAR     75  68  78 S9        30.01S
OLATHE - IXD   CLEAR     72  69  90 S7        30.01S
OLATHE - OJC   CLEAR     73  68  84 S7        30.00S
LAWRENCE       CLEAR     72  69  90 E7        29.99R

$$

MOZ001>008-011>017-020>025-030>033-038>040-044>046-053-054-010900-
...NORTHERN AND CENTRAL MISSOURI...

CITY           SKY/WX    TMP DP  RH WIND       PRES   REMARKS
ST. JOSEPH     CLEAR     71  69  93 S7        29.97S
MOSBY          SUNNY     72  68  88 CALM      29.99S
WARRENSBURG    CLEAR     72  68  88 S6        30.01S
WHITEMAN AFB   CLEAR     72  68  88 SW8       30.01S
CLINTON        CLEAR     73  70  88 S7        30.03S
SEDALIA        CLEAR     74  68  81 S7        30.04S
WARSAW         NOT AVBL
CHILLICOTHE      N/A     70  68  93 CALM      30.00F
KIRKSVILLE     CLEAR     71  67  87 S6        30.02F

$$

MOZ041-047>049-056>058-063>065-088>090-097-010900-
...EASTERN AND SOUTHERN MISSOURI...

CITY           SKY/WX    TMP DP  RH WIND       PRES   REMARKS
ST. LOUIS INTL CLEAR     78  70  76 S3        30.06S
SPIRIT OF STL  CLEAR     73  71  93 CALM      30.04S
COLUMBIA       CLEAR     72  69  90 S6        30.05S
JEFFERSON CITY CLEAR     75  69  81 E6        30.04S
ROLLA          CLEAR     71  68  90 S9        30.06S
OSAGE BEACH    CLEAR     72  66  83 CALM      30.06S
SPRINGFIELD    CLEAR     72  67  84 S10       30.07R
BRANSON        CLEAR     70  66  88 CALM      30.09S
JOPLIN         CLEAR     73  66  78 S8        30.04S
WEST PLAINS    CLEAR     72  68  87 S3        30.11S

$$

IAZ060-094-KSZ022-034>040-054-083-096-NEZ052-066-093-010900-
...KANSAS...SOUTHEAST NEBRASKA AND IOWA...

CITY           SKY/WX    TMP DP  RH WIND       PRES   REMARKS
TOPEKA         CLEAR     75  69  81 SE5       29.97S
MANHATTAN      CLEAR     75  67  76 SW10      29.95S
EMPORIA        CLEAR     70  68  93 S15       29.99R
CHANUTE        CLEAR     72  69  90 S6        30.02R
WICHITA        PTCLDY    71  64  78 S7        29.99S
OMAHA          CLEAR     72  69  90 SE9       29.93S
LINCOLN        CLEAR     72  67  84 MISG      29.93S
FALLS CITY     CLEAR     73  68  84 S8        29.95S
LAMONI         CLEAR     72  68  87 S9        29.98F
DES MOINES     CLEAR     73  67  81 S9        29.95S

$$




USA.gov is the U.S. government's official web portal to all federal, state and local government web resources and services.